Location: Newark
(42.7133°N, 87.7910°W)
Time: 15:27:50
(UTC+00:00)

Tiros 1 - Pass Details

Date: 26 September 2019
Orbit: 630 x 664 km, 48.4° (Epoch: 13 October)

Event Time Altitude Azimuth Distance (km) Brightness Sun altitude
Rises 19:53:34 0° 288° (WNW) 2,971 10.8 37.0°
Reaches altitude 10° 19:56:01 10° 295° (WNW) 2,053 10.0 36.7°
Maximum altitude 20:00:33 44° 8° (N) 898 7.9 36.1°
Drops below altitude 10° 20:05:01 10° 81° (E) 2,029 9.4 35.5°
Sets 20:07:26 0° 88° (E) 2,932 10.2 35.2°
